Other Public Products
Issued by NWS Grand Forks, ND

Home | Current Version | Previous Version | Text Only | Print | Product List | Glossary On
Versions: 1 2 3 4 5 6 7 8 9 10 11 12 13 14 15 16 17 18 19 20 21 22 23 24 25 26 27 28 29 30 31 32 33 34 35 36 37 38 39 40 41 42 43 44 45 46 47 48 49 50
000
FPUS83 KFGF 241610
OPUFGF
PRAIRIE TO PINES WEATHER ROUNDUP
NATIONAL WEATHER SERVICE EASTERN NORTH DAKOTA/GRAND FORKS ND
1100 AM CDT WED AUG 24 2016

 **SATELLITE DATA USED TO AUGMENT SKY COVER AT AUTOMATED STATIONS**
 *****  WEATHER ACROSS EASTERN NORTH DAKOTA  *****

CITY           SKY/WX    TMP DP  RH WIND       PRES   REMARKS
GRAND FORKS    MOSUNNY   70  54  56 W20       29.85R
GRAND FORKS AF SUNNY     69  55  59 W16       29.86R
GRAND CITY NWS   N/A     70 N/A N/A W7          N/A
BUXTON           N/A     71  58  61 W21         N/A
DEVILS LAKE    MOSUNNY   65  52  62 W21G30    29.89S
FARGO          SUNNY     71  53  52 W18       29.91R
WAHPETON ARPT  SUNNY     70  52  52 W12       29.94R
$$

 *****  WEATHER ACROSS CENTRAL AND WESTERN NORTH DAKOTA  *****

CITY           SKY/WX    TMP DP  RH WIND       PRES   REMARKS
JAMESTOWN      SUNNY     65  54  67 W16       29.95R
BISMARCK       MOSUNNY   68  51  54 W16G26    30.02R
MINOT          PTSUNNY   64  49  57 W22G31    29.92S
MINOT AFB      MOSUNNY   64  49  57 W25G33    29.90S
GARRISON         N/A     62  49  62 W21G32    29.97R
WILLISTON      MOSUNNY   63  46  54 W24G31    30.01R
DICKINSON      PTSUNNY   63  44  50 W28G37    30.04R
HETTINGER      MOSUNNY   65  48  54 NW22G32   30.12R
$$

 *****  OTHER OBSERVATIONS NORTHEAST NORTH DAKOTA  *****

CITY           SKY/WX    TMP DP  RH WIND       PRES   REMARKS
WALHALLA       NOT AVBL
LANGDON        CLOUDY    66  52  59 W23G29    29.85S
CAVALIER       FAIR      68  54  60 W16G23    29.82R
GRAFTON        FAIR      68  55  64 W20       29.85R
CANDO          NOT AVBL
FORT TOTTEN    NOT AVBL
ROLLA          FAIR      61  50  67 W17G25    29.87S
RUGBY          NOT AVBL
 ***** THE ABOVE OBSERVATIONS ARE NON NWS ARE NOT QUALITY
        CONTROLLED AND MAY MIS-REPORT RAIN FOR SNOW...
$$

 *****  OTHER OBSERVATIONS SOUTHEAST NORTH DAKOTA *****

CITY           SKY/WX    TMP DP  RH WIND       PRES   REMARKS
COOPERSTOWN    NOT AVBL
VALLEY CITY    FAIR      66  55  68 W13G24    29.97R
OAKES            N/A    N/A N/A N/A MISG        N/A
GWINNER        FAIR      70  54  56 W18G25    29.95F
SHEYENNE NWR     N/A     70  54  56 NW14      29.95S
BUFFALO          N/A     67  49  53 CALM        N/A
WYNDMERE       NOT AVBL
 ***** THE ABOVE OBSERVATIONS ARE NON NWS ARE NOT QUALITY
       CONTROLLED AND MAY MIS-REPORT RAIN FOR SNOW...
$$

  *****  WEATHER ACROSS NORTHERN MINNESOTA  *****

CITY           SKY/WX    TMP DP  RH WIND       PRES   REMARKS
FLAG ISLAND    SUNNY     72  57  60 SW5       29.75S HAZE
WARROAD        SUNNY     70  61  73 SW10      29.79R
ROSEAU         SUNNY     68  57  68 SW12      29.80R
HALLOCK        SUNNY     70  54  56 W13G18    29.81R
THF RVR FALLS  SUNNY     69  54  58 W14       29.86R
HALSTAD          N/A     69  55  61 W15         N/A
FOSSTON        SUNNY     68  54  60 W9        29.88R
BAUDETTE       SUNNY     74  56  53 W13G18    29.78S
WASKISH        SUNNY     72  57  60 W14       29.82R
CROOKSTON      SUNNY     70  55  60 W14       29.87R
$$
  *****  WEATHER ACROSS CENTRAL AND WEST MINNESOTA  *****

CITY           SKY/WX    TMP DP  RH WIND       PRES   REMARKS
BEMIDJI        SUNNY     72  54  52 W13       29.86R
PARK RAPIDS    SUNNY     74  54  49 W15       29.89R
WADENA         SUNNY     70  55  60 W8G17     29.91R
DETROIT LAKES  SUNNY     70  54  56 W14G20    29.92R
MOORHEAD       SUNNY     72  54  53 W17       29.92R
FERGUS FALLS   SUNNY     70  55  60 NW13G20   29.94S
ELBOW LAKE     FAIR      68  56  65 NW10      29.95R
MORRIS MN      SUNNY     73  55  53 NW13      29.94R
STAPLES        SUNNY     73  54  49 W9        29.91R
WHEATON        NOT AVBL
$$
  *****  WEATHER ELSEWHERE ACROSS MINNESOTA  *****

CITY           SKY/WX    TMP DP  RH WIND       PRES   REMARKS
DULUTH         CLOUDY    71  65  81 W12       29.85R
INTRNTL FALLS  MOSUNNY   74  62  66 W12G18    29.78R
ELY            PTSUNNY   73  64  73 SW6       29.81R
CLOQUET        CLOUDY    70  64  83 W7        29.86R
BRAINERD       SUNNY     75  55  49 W12       29.89R
HIBBING        CLOUDY    71  66  84 SW3       29.83R
ALEXANDRIA     SUNNY     71  54  54 NW13      29.95R
SAINT CLOUD    SUNNY     77  60  55 NW13      29.90R
MINNEAPOLIS    CLOUDY    72  67  84 VRB7      29.89S
$$

  *****  WEATHER ACROSS SOUTH DAKOTA  *****

CITY           SKY/WX    TMP DP  RH WIND       PRES   REMARKS
SIOUX FALLS    CLOUDY    71  58  63 NW7       30.03R
BROOKINGS      MOSUNNY   70  55  59 NW10      30.01R
WATERTOWN      SUNNY     71  53  52 NW14      30.00R
HURON          PTSUNNY   72  53  51 NW14      30.03R
SISSETON         N/A     71  53  52 N15G24    29.94S
ABERDEEN       MOSUNNY   70  50  49 NW23G29   29.99S
MITCHELL       CLOUDY    69  55  60 N8        30.06R
PIERRE         CLOUDY    67  49  52 NW14      30.10R
MOBRIDGE       SUNNY     69  49  48 NW16G24   30.05S
RAPID CITY     SUNNY     66  46  48 NW16G22   30.20R
$$

  *****  SOME WEATHER IN NEARBY STATES *****

CITY           SKY/WX    TMP DP  RH WIND       PRES   REMARKS
GLASGOW MT     CLOUDY    56  44  64 W29G37    30.13R
GREAT FALLS MT CLOUDY    55  45  68 N14       30.35R
CHEYENNE WY    CLOUDY    58  44  60 E9        30.29R
SCOTTSBLUFF NE CLOUDY    62  44  51 MISG      30.23R
OMAHA NE       PTSUNNY   76  65  68 N15       29.97S
DES MOINES IA  PTSUNNY   80  69  69 W10       29.95R
DAVENPORT IA   CLOUDY    77  72  84 SW10      29.94R
CHICAGO IL     LGT RAIN  73  71  93 S13       29.97S FOG
EAU CLAIRE WI  CLOUDY    73  68  84 W6        29.86S
LA CROSSE WI   CLOUDY    74  32  21 S9        29.88R
$$

  *****  SOME NATIONAL WEATHER *****

CITY           SKY/WX    TMP DP  RH WIND       PRES   REMARKS
LA GUARDIA NY  MOSUNNY   84  57  39 NW3       30.25F
RALEIGH NC     CLOUDY    82  61  48 CALM      30.31F
ATLANTA GA     PTSUNNY   82  74  76 S6        30.28S
NEW ORLEANS LA CLOUDY    89  77  67 NE6       30.17R HX 101
OKLAHOMA CITY  MOSUNNY   88  69  53 SW22G30   30.07R HX  92
ALBUQUERQUE NM CLOUDY    66  50  56 CALM      30.26R
SALT LAKE CITY MOSUNNY   75  27  17 N5        30.16R
LOS ANGELES CA MOSUNNY   70  60  70 SW5       30.04S
BOISE ID       SUNNY     63  40  42 VRB3      30.17S
SEATTLE WA     MOSUNNY   66  56  70 N13       30.25R
$$

*** WEATHER ACROSS MANITOBA...SASKATCHEWAN AND ONTARIO ***
                ***ONTARIO***

CITY           SKY/WX    TMP DP  RH WIND       PRES   REMARKS
GERALDTON      PTSUNNY   73  64  73 S7G17     29.79F
THUNDER BAY    MOSUNNY   77  66  69 SW7       29.76F
SIOUX LOOKOUT  PTSUNNY   73  66  78 W7G18     29.71R
TORONTO        PTSUNNY   79  63  57 SE13      30.13F
BIG TROUT LK   LGT RAIN  55  52  88 NE7       29.88R
PICKLE LAKE    CLOUDY    59  59 100 E10       29.74S
DRYDEN         CLOUDY    68  61  77 W14G20    29.75R
KENORA         PTSUNNY   68  61  77 W12       29.76R
$$
                *** MANITOBA***

CITY           SKY/WX    TMP DP  RH WIND       PRES   REMARKS
BRANDON        PTSUNNY   63  54  72 W14G23    29.81R
DAUPHIN        CLOUDY    61  55  82 W9        29.77R
ISLAND LAKE    PTSUNNY   59  52  77 NE8G18    29.88R
PILOT MOUND      N/A     63  50  63 W13G21      N/A
THE PAS        PTSUNNY   59  52  77 N10G17    29.95S
THOMPSON       PTSUNNY   57  50  77 N9        30.01R
WINNIPEG       SUNNY     68  54  60 W20       29.77R
LYNN LAKE      SUNNY     63  46  55 MISG      30.07S
GILLAM         PTSUNNY   57  48  72 NE6       30.00S
$$
                ***SASKATCHEWAN***

CITY           SKY/WX    TMP DP  RH WIND       PRES   REMARKS
ESTEVAN        LGT RAIN  57  54  88 W20G26    29.93R
KINDERSLEY     CLOUDY    55  50  82 NW12      30.20R
LLOYDMINSTER   PTSUNNY   61  50  67 N7        30.23R
PRINCE ALBERT  NOT AVBL
REGINA         CLOUDY    54  52  94 NW20G26   29.94R
YORKTON        LGT RAIN  57  55  94 N16G22    29.83S
N. BATTLEFORD  CLOUDY    57  50  77 N12       30.18R  C1F1C2F2C3F3C4F4C5F5C6F6C7F7C8F8C9F9CaFaCbFbCcFcCdFdCe!


USA.gov is the U.S. government's official web portal to all federal, state and local government web resources and services.